Lid_Strength_Index
10 14 15 13 12 12 12 13 14 12 10 12 12 12 11 10 10 10 10 9 8 8 7 5 4 3 4 2 3 3 2 1 1 2 2 2 2 2 2 2 3 2 1 1
13 15 11 10 11 12 13 14 14 12 10 11 12 13 11 10 10 10 10 9 8 7 6 6 5 5 4 4 2 3 2 2 2 1 2 2 2 4 2 2 2 3 1 0
14 12 9 10 12 12 13 13 13 13 11 11 12 14 12 10 10 9 9 9 8 8 7 6 6 6 5 4 3 2 2 2 2 1 3 5 5 5 4 4 4 2 0 0
13 10 10 11 12 10 13 9 10 11 13 17 12 18 14 12 11 10 10 10 9 8 7 7 5 5 6 5 2 2 2 2 2 3 2 4 3 4 3 3 2 1 1 1
13 12 12 12 10 9 11 9 10 11 13 15 14 17 15 12 12 11 9 9 8 8 8 8 7 5 4 3 2 2 2 2 2 2 2 2 4 3 3 2 2 2 1 1
11 9 9 9 8 8 8 11 12 13 14 18 14 15 16 14 13 10 9 8 7 7 7 7 7 6 5 4 3 3 3 3 3 2 2 2 3 3 3 3 3 3 3 2
12 12 8 7 10 8 10 14 18 19 18 19 12 14 15 11 9 9 8 8 7 7 7 6 6 6 6 6 3 4 3 3 2 2 2 2 2 2 3 3 3 3 4 4
17 17 10 7 10 12 12 13 18 22 20 18 12 17 13 9 7 7 7 7 7 7 7 5 5 5 5 5 6 4 5 3 2 2 2 2 2 2 2 2 2 2 3 3
15 13 8 7 8 9 12 14 11 16 15 18 16 13 10 9 8 8 7 7 7 7 7 6 5 4 5 5 5 5 4 3 3 2 2 2 2 2 2 2 2 3 3 3
11 15 9 8 8 8 10 10 16 16 21 22 17 16 15 12 11 9 8 8 7 7 7 6 6 5 5 4 5 5 5 3 2 2 2 2 2 2 2 2 2 3 3 3
11 13 13 10 11 13 12 14 14 14 16 20 21 17 11 11 10 9 8 7 7 6 6 6 6 5 7 4 4 4 5 3 3 3 2 2 2 2 2 2 3 3 3 3
10 13 16 13 9 8 10 13 13 17 18 17 17 17 8 8 9 8 8 7 7 6 6 6 6 8 7 6 4 5 3 3 3 2 2 2 2 2 2 2 2 2 2 1
10 14 17 15 13 11 12 12 12 12 13 17 19 17 8 9 9 8 8 7 7 6 6 6 7 7 6 7 6 4 3 3 3 2 3 3 3 2 2 2 2 2 1 2
8 13 15 18 14 13 14 12 11 13 16 16 15 13 10 9 10 8 7 7 7 7 7 6 6 7 7 8 6 4 4 3 3 3 3 3 3 3 3 3 2 2 2 2
10 15 13 12 12 12 12 12 12 13 13 15 13 14 11 10 9 8 7 7 7 7 6 6 7 6 6 7 5 3 3 3 3 3 3 4 4 4 4 4 3 3 3 3
10 14 12 14 12 11 12 11 11 11 11 12 12 13 8 8 8 8 7 7 7 7 6 6 5 5 5 5 5 4 3 3 2 3 3 3 3 3 3 4 4 4 3 2
12 13 14 17 12 13 16 13 12 11 10 12 15 12 9 9 9 8 7 7 7 6 6 5 5 5 4 4 3 6 3 3 3 3 3 3 3 3 3 3 4 4 3 3
12 13 14 16 15 20 13 9 9 11 10 9 10 10 9 9 7 7 6 7 7 7 6 6 5 5 4 3 3 4 3 3 3 3 3 3 3 4 3 3 3 3 2 2
9 12 15 17 19 14 12 11 12 13 13 9 10 9 9 8 7 8 5 6 7 7 7 6 5 4 4 4 3 4 5 3 3 3 3 3 3 4 3 3 3 2 2 3
10 11 14 16 19 20 13 10 8 8 15 9 9 9 9 8 12 9 7 7 7 6 7 6 5 3 4 3 3 4 4 4 4 3 3 3 3 3 3 3 2 2 2 3
14 13 16 16 17 15 10 9 7 16 14 9 8 8 8 10 8 7 6 7 6 7 7 6 6 4 4 3 3 4 4 4 3 3 2 2 2 2 2 2 2 2 2 3
14 15 16 15 17 19 8 9 13 10 8 7 8 8 8 7 6 7 7 7 7 7 6 6 6 4 3 3 4 6 4 3 2 2 2 2 2 2 2 2 3 2 3 3
16 12 14 13 14 9 8 8 7 6 7 8 9 8 8 7 8 8 7 7 7 6 6 5 4 4 4 3 3 4 3 2 2 3 3 2 2 2 2 2 3 3 3 3
10 8 12 11 10 9 8 7 7 8 8 8 8 7 7 8 7 7 7 6 5 4 4 5 5 4 4 3 3 3 3 2 3 3 3 3 3 3 3 2 2 3 3 3
10 9 11 11 9 8 8 7 8 8 8 8 7 7 7 6 7 7 6 6 5 4 4 5 4 4 4 3 3 2 2 2 3 3 3 3 3 3 5 7 5 3 3 3
8 10 12 13 8 9 8 9 8 9 8 7 7 7 6 6 6 5 5 5 4 5 4 4 4 4 4 3 3 2 2 2 3 3 3 3 3 4 5 6 7 13 12 11